Zurück zum Katalog

FENGYUN 1C DEB

AktivSSO
NORAD 31158·DEBRIS·🇨🇳 China

Gestartet May 10, 1999 von Taiyuan Satellite Launch Center

Loading…

Nächste Überflüge (nächste 24 Stunden)

TLE

AktuellSource: Space-Track

Epoche: Sep 13, 2026, 12:11 UTC

1 31158U 99025BHL 26256.50829241  .00002189  00000-0  76931-3 0  9994
2 31158  98.7695 344.3259 0044564 304.2942  55.4028 14.35432842684199

Verfolge FENGYUN 1C DEB in Echtzeit mit AllMySat

Download on the App Store